DW4847 Weather Reports


Display with metric or nautical units.
time (UTC)temp
F
wind
direction
speed
MPH
gust
MPH
rain 1hr
in
rain 24hr
in
rain mn
in
humidity
%
barometer
mb
20260905002030 65 248 0.0 1.0 0.00 0.00 0.00 88 1011.5
20260905001533 65 248 0.0 1.0 0.00 0.00 0.00 88 1011.4
20260905001038 66 248 0.0 1.0 0.00 0.00 0.00 88 1011.3
20260905000545 66 248 0.0 1.0 0.00 0.00 0.00 88 1011.2
20260905000027 66 248 0.0 0.0 0.00 0.00 0.00 88 1011.2
20260904235605 66 248 0.0 1.0 0.00 0.00 0.00 86 1011.2
20260904235030 66 248 0.0 1.0 0.00 0.00 0.00 87 1011.1
20260904234533 66 248 0.0 1.0 0.00 0.00 0.00 87 1011.1
20260904234034 66 248 0.0 1.0 0.00 0.00 0.00 85 1011.1
20260904233554 66 249 0.0 1.0 0.00 0.00 0.00 85 1011.2
20260904233058 66 249 0.0 1.0 0.00 0.00 0.00 85 1011.1
20260904232603 66 249 0.0 1.0 0.00 0.00 0.00 86 1011.0
20260904232030 66 249 0.0 0.0 0.00 0.00 0.00 87 1010.9
20260904231533 66 249 0.0 1.0 0.00 0.00 0.00 87 1011.0
20260904231056 67 249 0.0 1.0 0.00 0.00 0.00 87 1011.0
20260904230538 67 249 0.0 1.0 0.00 0.00 0.00 88 1011.0
20260904230115 67 249 0.0 1.0 0.00 0.00 0.00 88 1011.0
20260904225600 67 249 0.0 1.0 0.00 0.00 0.00 88 1010.9
20260904225038 67 249 0.0 1.0 0.00 0.00 0.00 89 1010.9
20260904224544 67 249 0.0 1.0 0.00 0.00 0.00 88 1010.9
20260904224033 68 249 0.0 1.0 0.00 0.00 0.00 87 1011.1
20260904223536 68 249 0.0 1.0 0.00 0.00 0.00 87 1011.1
20260904223042 68 249 0.0 1.0 0.00 0.00 0.00 87 1011.0
20260904222545 68 249 0.0 1.0 0.00 0.00 0.00 86 1010.9
20260904222027 69 252 0.0 1.0 0.00 0.00 0.00 86 1010.7
20260904221526 69 252 0.0 1.0 0.00 0.00 0.00 84 1010.7
20260904221029 69 252 0.0 1.0 0.00 0.00 0.00 84 1010.7
20260904220534 70 252 0.0 1.0 0.00 0.00 0.00 82 1010.8
20260904220037 70 252 0.0 1.0 0.00 0.00 0.00 81 1010.8
20260904215555 71 254 0.0 1.0 0.00 0.00 0.00 80 1010.8
20260904215057 72 254 0.0 1.0 0.00 0.00 0.00 75 1010.8
20260904214534 72 254 0.0 1.0 0.00 0.00 0.00 74 1010.9
20260904214038 72 254 0.0 3.0 0.00 0.00 0.00 72 1011.0
20260904213547 72 319 1.0 3.0 0.00 0.00 0.00 71 1010.9
20260904213032 73 221 0.0 3.0 0.00 0.00 0.00 69 1010.9
20260904212535 73 244 1.0 3.0 0.00 0.00 0.00 69 1010.9
20260904212038 73 322 1.0 3.0 0.00 0.00 0.00 69 1010.9
20260904211555 73 280 0.0 3.0 0.00 0.00 0.00 68 1011.0
20260904211053 73 185 0.0 3.0 0.00 0.00 0.00 68 1011.0
20260904210529 73 276 1.0 2.0 0.00 0.00 0.00 68 1011.0
20260904210032 73 71 1.0 3.0 0.00 0.00 0.00 68 1011.0
20260904205550 74 228 1.0 3.0 0.00 0.00 0.00 69 1011.1
20260904205054 74 246 0.0 6.0 0.00 0.00 0.00 70 1011.0
20260904204537 74 297 1.0 6.0 0.00 0.00 0.00 68 1011.0
20260904204041 74 310 2.0 5.0 0.00 0.00 0.00 67 1011.0
20260904203546 74 181 0.0 7.0 0.00 0.00 0.00 65 1011.0
20260904203042 74 328 1.0 7.0 0.00 0.00 0.00 67 1011.0
20260904202534 74 251 0.0 4.0 0.00 0.00 0.00 65 1010.9
20260904202037 74 232 2.0 4.0 0.00 0.00 0.00 67 1011.0
20260904201541 74 340 1.0 4.0 0.00 0.00 0.00 65 1011.1
20260904201026 74 188 2.0 3.0 0.00 0.00 0.00 65 1011.1
20260904200531 74 168 1.0 3.0 0.00 0.00 0.00 65 1011.1
20260904200032 74 226 1.0 6.0 0.00 0.00 0.00 64 1011.1
20260904195534 74 230 1.0 5.0 0.00 0.00 0.00 67 1011.0
20260904195037 74 26 1.0 5.0 0.00 0.00 0.00 67 1011.1
20260904194543 74 311 0.0 3.0 0.00 0.00 0.00 66 1011.1
20260904194026 74 249 1.0 5.0 0.00 0.00 0.00 63 1011.1
20260904193530 75 252 1.0 5.0 0.00 0.00 0.00 64 1011.1
20260904193031 74 28 2.0 5.0 0.00 0.00 0.00 63 1011.1
20260904192534 74 306 2.0 5.0 0.00 0.00 0.00 64 1011.1
20260904192036 74 106 1.0 5.0 0.00 0.00 0.00 65 1011.1
20260904191553 74 309 2.0 5.0 0.00 0.00 0.00 64 1011.1
20260904191058 75 334 1.0 5.0 0.00 0.00 0.00 66 1011.2
20260904190601 75 151 1.0 4.0 0.00 0.00 0.00 62 1011.0
20260904190045 75 329 2.0 4.0 0.00 0.00 0.00 64 1011.1
20260904185547 75 327 2.0 4.0 0.00 0.00 0.00 62 1011.2
20260904185050 75 184 2.0 4.0 0.00 0.00 0.00 65 1011.2
20260904184534 75 244 1.0 6.0 0.00 0.00 0.00 64 1011.2
20260904184036 74 316 1.0 6.0 0.00 0.00 0.00 62 1011.2
20260904183540 74 173 2.0 5.0 0.00 0.00 0.00 62 1011.3
20260904183041 75 335 1.0 5.0 0.00 0.00 0.00 64 1011.5
20260904182527 74 243 2.0 6.0 0.00 0.00 0.00 62 1011.5
20260904182034 74 285 2.0 6.0 0.00 0.00 0.00 61 1011.5
20260904181600 74 240 2.0 5.0 0.00 0.00 0.00 63 1011.7
20260904181038 75 198 2.0 8.0 0.00 0.00 0.00 60 1011.6
20260904180618 75 221 2.0 8.0 0.00 0.00 0.00 61 1011.6
20260904175606 75 242 1.0 6.0 0.00 0.00 0.00 60 1011.6
20260904175028 74 161 2.0 5.0 0.00 0.00 0.00 61 1011.6
20260904174530 74 325 3.0 7.0 0.00 0.00 0.00 61 1011.5
20260904174032 75 155 2.0 7.0 0.00 0.00 0.00 66 1011.5
20260904173552 75 213 1.0 5.0 0.00 0.00 0.00 63 1011.5
20260904173055 74 201 2.0 4.0 0.00 0.00 0.00 64 1011.4
20260904172540 74 303 2.0 4.0 0.00 0.00 0.00 65 1011.4
20260904172044 74 222 1.0 5.0 0.00 0.00 0.00 65 1011.3
20260904171526 74 288 3.0 5.0 0.00 0.00 0.00 68 1011.3
20260904171032 74 311 2.0 5.0 0.00 0.00 0.00 66 1011.3
20260904170535 74 323 3.0 4.0 0.00 0.00 0.00 65 1011.4
20260904170042 74 215 1.0 8.0 0.00 0.00 0.00 67 1011.4
20260904165525 74 330 2.0 8.0 0.00 0.00 0.00 65 1011.6
20260904165034 74 221 2.0 5.0 0.00 0.00 0.00 66 1011.7
20260904164537 73 319 2.0 5.0 0.00 0.00 0.00 67 1011.6
20260904164043 73 323 2.0 5.0 0.00 0.00 0.00 66 1011.6
20260904163551 73 325 1.0 8.0 0.00 0.00 0.00 67 1011.6
20260904163027 73 220 2.0 8.0 0.00 0.00 0.00 68 1011.8
20260904162530 73 355 3.0 9.0 0.00 0.00 0.00 67 1011.8
20260904162055 73 225 3.0 11.0 0.00 0.00 0.00 66 1011.9
20260904161536 73 187 3.0 11.0 0.00 0.00 0.00 68 1011.9
20260904161042 73 344 3.0 8.0 0.00 0.00 0.00 68 1011.9
20260904160546 72 203 3.0 8.0 0.00 0.00 0.00 69 1011.9
20260904160028 72 252 1.0 6.0 0.00 0.00 0.00 73 1011.8
20260904155547 72 243 0.0 5.0 0.00 0.00 0.00 73 1011.9
20260904155105 72 331 2.0 5.0 0.00 0.00 0.00 73 1012.0
20260904154550 72 235 0.0 5.0 0.00 0.00 0.00 76 1012.2
20260904154044 72 355 3.0 8.0 0.00 0.00 0.00 73 1012.2
20260904153547 72 340 2.0 8.0 0.00 0.00 0.00 74 1012.1
20260904153049 72 317 2.0 6.0 0.00 0.00 0.00 72 1012.1
20260904152535 72 318 2.0 4.0 0.00 0.00 0.00 74 1012.2
20260904152036 72 225 2.0 4.0 0.00 0.00 0.00 76 1012.2
20260904151538 72 322 2.0 8.0 0.00 0.00 0.00 76 1012.3
20260904151044 71 38 2.0 8.0 0.00 0.00 0.00 78 1012.3
20260904150529 71 169 1.0 4.0 0.00 0.00 0.00 78 1012.4
20260904150050 71 229 2.0 5.0 0.00 0.00 0.00 78 1012.4
20260904145532 71 224 3.0 6.0 0.00 0.00 0.00 78 1012.3
20260904145035 71 217 3.0 6.0 0.00 0.00 0.00 78 1012.2
20260904144544 71 5 2.0 8.0 0.00 0.00 0.00 79 1012.3
20260904144029 70 215 3.0 8.0 0.00 0.00 0.00 81 1012.3
20260904143609 70 240 2.0 8.0 0.00 0.00 0.00 80 1012.3
20260904143052 70 213 1.0 11.0 0.00 0.00 0.00 81 1012.4
20260904142535 70 328 3.0 12.0 0.00 0.00 0.00 81 1012.4
20260904142041 70 277 2.0 4.0 0.00 0.00 0.00 82 1012.5
20260904141540 69 319 1.0 4.0 0.00 0.00 0.00 83 1012.5
20260904141029 69 331 2.0 4.0 0.00 0.00 0.00 82 1012.4
20260904140531 69 234 1.0 5.0 0.00 0.00 0.00 82 1012.3
20260904140036 69 247 1.0 5.0 0.00 0.01 0.00 84 1012.3
20260904135539 68 329 2.0 5.0 0.00 0.01 0.00 85 1012.3
20260904135045 68 281 0.0 6.0 0.00 0.01 0.00 86 1012.3
20260904134531 68 244 1.0 5.0 0.00 0.01 0.00 87 1012.3
20260904134053 68 256 1.0 2.0 0.00 0.01 0.00 87 1012.3
20260904133539 67 239 0.0 3.0 0.00 0.01 0.00 89 1012.3
20260904133043 67 232 1.0 3.0 0.00 0.01 0.00 90 1012.3
20260904132526 67 121 0.0 4.0 0.00 0.01 0.00 91 1012.4
20260904132032 67 28 1.0 4.0 0.00 0.01 0.00 90 1012.4
20260904131550 66 311 0.0 4.0 0.00 0.01 0.00 92 1012.3
20260904131054 66 5 2.0 4.0 0.00 0.01 0.00 91 1012.3
20260904130556 66 323 2.0 4.0 0.00 0.01 0.00 93 1012.3
20260904130057 65 290 1.0 4.0 0.00 0.01 0.00 93 1012.3
20260904125542 65 355 2.0 4.0 0.00 0.01 0.00 93 1012.3
20260904125045 65 221 1.0 4.0 0.00 0.01 0.00 94 1012.3
20260904124549 65 221 1.0 5.0 0.00 0.01 0.00 94 1012.3
20260904124031 64 62 1.0 6.0 0.00 0.01 0.00 95 1012.3
20260904123539 64 269 1.0 6.0 0.00 0.01 0.00 95 1012.3
20260904123041 64 340 1.0 5.0 0.00 0.01 0.00 96 1012.1
20260904122543 63 311 1.0 2.0 0.00 0.01 0.00 96 1012.1
20260904122106 63 226 1.0 2.0 0.00 0.01 0.00 97 1012.1
20260904121527 63 227 1.0 3.0 0.00 0.01 0.00 97 1012.2
20260904121031 63 280 0.0 2.0 0.00 0.01 0.00 97 1012.1
20260904120537 63 311 1.0 2.0 0.00 0.01 0.00 97 1012.1
20260904120052 63 153 0.0 3.0 0.00 0.01 0.00 97 1012.0
20260904115553 63 306 1.0 2.0 0.00 0.01 0.00 97 1012.0
20260904115035 62 313 1.0 2.0 0.00 0.01 0.00 97 1012.0
20260904114541 62 313 0.0 2.0 0.00 0.01 0.00 97 1011.9
20260904114044 62 312 0.0 2.0 0.00 0.01 0.00 97 1011.9
20260904113529 62 290 0.0 1.0 0.00 0.01 0.00 97 1011.9
20260904113030 61 290 0.0 1.0 0.00 0.01 0.00 97 1011.8
20260904112554 61 289 0.0 1.0 0.00 0.01 0.00 97 1011.8
20260904112034 61 288 0.0 1.0 0.00 0.01 0.00 97 1011.7
20260904111552 60 288 0.0 2.0 0.00 0.01 0.00 97 1011.7
20260904111058 60 286 1.0 2.0 0.00 0.01 0.00 97 1011.7
20260904110527 60 286 1.0 2.0 0.00 0.01 0.00 97 1011.7
20260904110104 60 286 0.0 1.0 0.00 0.01 0.00 97 1011.7
20260904105545 60 286 0.0 0.0 0.00 0.01 0.00 97 1011.6
20260904105028 60 286 0.0 0.0 0.00 0.01 0.00 96 1011.4
20260904104530 60 286 0.0 0.0 0.00 0.01 0.00 96 1011.5
20260904104033 60 286 0.0 0.0 0.00 0.01 0.00 96 1011.5
20260904103538 60 286 0.0 0.0 0.00 0.01 0.00 96 1011.6
20260904103039 60 286 0.0 0.0 0.00 0.01 0.00 96 1011.6
20260904102542 60 286 0.0 0.0 0.00 0.01 0.00 96 1011.6
20260904102059 60 286 0.0 0.0 0.00 0.01 0.00 96 1011.6
20260904101526 60 286 0.0 0.0 0.00 0.01 0.00 96 1011.7
20260904101100 60 286 0.0 0.0 0.00 0.01 0.00 96 1011.7
20260904100545 60 286 0.0 0.0 0.00 0.01 0.00 96 1011.5
20260904100045 61 286 0.0 0.0 0.00 0.01 0.00 96 1011.6
20260904095550 61 286 0.0 0.0 0.00 0.01 0.00 96 1011.5
20260904095036 61 286 0.0 0.0 0.00 0.01 0.00 96 1011.5
20260904094538 61 286 0.0 0.0 0.00 0.01 0.00 96 1011.5
20260904094040 61 286 0.0 0.0 0.00 0.01 0.00 96 1011.4
20260904093543 61 286 0.0 0.0 0.00 0.01 0.00 96 1011.3
20260904093045 61 286 0.0 0.0 0.00 0.01 0.00 96 1011.3
20260904092534 61 286 0.0 0.0 0.00 0.01 0.00 96 1011.3
20260904092104 62 286 0.0 0.0 0.00 0.01 0.00 96 1011.3
20260904091525 62 286 0.0 0.0 0.00 0.01 0.00 96 1011.3
20260904091032 62 286 0.0 0.0 0.00 0.01 0.00 96 1011.4
20260904090535 62 286 0.0 0.0 0.00 0.01 0.00 96 1011.3
20260904090032 62 286 0.0 0.0 0.00 0.01 0.00 96 1011.3
20260904085535 62 286 0.0 0.0 0.00 0.01 0.00 96 1011.3
20260904085053 62 286 0.0 0.0 0.00 0.01 0.00 97 1011.3
20260904084555 62 286 0.0 0.0 0.00 0.01 0.00 97 1011.2
20260904084026 62 286 0.0 0.0 0.00 0.01 0.00 97 1011.1
20260904083546 62 286 0.0 0.0 0.00 0.01 0.00 97 1011.1
20260904083048 62 286 0.0 0.0 0.00 0.01 0.00 97 1011.0
20260904082550 62 286 0.0 0.0 0.00 0.01 0.00 97 1011.1
20260904082053 62 286 0.0 0.0 0.00 0.01 0.00 97 1011.0
20260904081535 62 286 0.0 0.0 0.00 0.01 0.00 97 1011.0
20260904081101 63 286 0.0 0.0 0.00 0.01 0.00 97 1010.9
20260904080600 63 286 0.0 0.0 0.00 0.01 0.00 97 1010.9
20260904080026 63 286 0.0 0.0 0.00 0.01 0.00 96 1011.0
20260904075600 63 286 0.0 0.0 0.00 0.01 0.00 97 1011.0
20260904075042 63 286 0.0 0.0 0.00 0.01 0.00 97 1011.1
20260904074545 63 286 0.0 0.0 0.00 0.01 0.00 96 1011.1
20260904074048 63 286 0.0 0.0 0.00 0.01 0.00 97 1011.1
20260904073533 63 286 0.0 0.0 0.00 0.01 0.00 97 1011.2
20260904073103 63 286 0.0 0.0 0.00 0.01 0.00 97 1011.1
20260904072528 63 286 0.0 0.0 0.00 0.01 0.00 97 1011.2
20260904072027 63 286 0.0 0.0 0.00 0.01 0.00 97 1011.2
20260904071530 63 286 0.0 0.0 0.00 0.01 0.00 97 1011.2
20260904071033 63 286 0.0 0.0 0.00 0.01 0.00 97 1011.3
20260904070616 63 286 0.0 0.0 0.00 0.01 0.00 97 1011.5
20260904070027 63 286 0.0 0.0 0.00 0.01 0.00 97 1011.7
20260904065545 63 286 0.0 0.0 0.00 0.01 0.00 97 1011.8
20260904065048 62 286 0.0 0.0 0.00 0.01 0.00 96 1011.8
20260904064547 62 286 0.0 0.0 0.00 0.01 0.00 96 1011.9
20260904064029 63 286 0.0 0.0 0.00 0.01 0.00 96 1011.9
20260904063536 62 286 0.0 0.0 0.00 0.01 0.00 96 1011.9
20260904063037 62 286 0.0 1.0 0.00 0.01 0.00 96 1012.0
20260904062526 62 286 0.0 1.0 0.00 0.01 0.00 96 1012.0
20260904062029 62 286 0.0 0.0 0.00 0.01 0.00 96 1012.1
20260904061532 62 286 0.0 0.0 0.00 0.01 0.00 96 1012.1
20260904061031 62 286 0.0 0.0 0.00 0.01 0.00 96 1012.2
20260904060541 63 286 0.0 0.0 0.00 0.01 0.00 96 1012.2
20260904060026 63 286 0.0 0.0 0.00 0.09 0.00 96 1012.1
20260904055604 63 286 0.0 0.0 0.00 0.09 0.00 96 1012.0
20260904055046 63 286 0.0 0.0 0.00 0.09 0.00 96 1012.1
20260904054528 63 286 0.0 0.0 0.00 0.09 0.00 96 1012.0
20260904054030 63 286 0.0 0.0 0.00 0.09 0.00 96 1012.1
20260904053534 63 286 0.0 0.0 0.00 0.09 0.00 96 1012.2
20260904053039 64 286 0.0 0.0 0.00 0.09 0.00 96 1012.3
20260904052543 64 286 0.0 0.0 0.00 0.09 0.00 96 1012.3
20260904052121 64 286 0.0 0.0 0.00 0.09 0.00 96 1012.4
20260904051606 64 286 0.0 0.0 0.00 0.09 0.00 96 1012.3
20260904051027 64 286 0.0 0.0 0.00 0.09 0.00 96 1012.4
20260904050531 64 286 0.0 0.0 0.00 0.09 0.00 96 1012.6
20260904050032 64 286 0.0 0.0 0.00 0.12 0.00 96 1012.7
20260904045539 64 286 0.0 0.0 0.00 0.12 0.00 96 1012.8
20260904045023 64 286 0.0 0.0 0.00 0.12 0.00 96 1012.8
20260904044530 64 286 0.0 0.0 0.00 0.12 0.00 96 1012.9
20260904044032 64 286 0.0 0.0 0.00 0.12 0.00 96 1012.9
20260904043536 64 286 0.0 0.0 0.00 0.12 0.00 96 1012.9
20260904043034 64 286 0.0 0.0 0.00 0.12 0.00 96 1012.9
20260904042540 64 286 0.0 0.0 0.00 0.12 0.00 96 1012.9
20260904042057 64 286 0.0 0.0 0.00 0.12 0.00 96 1012.8
20260904041538 64 286 0.0 0.0 0.00 0.12 0.00 96 1012.9
20260904041041 64 286 0.0 0.0 0.00 0.12 0.00 96 1012.9
20260904040528 64 286 0.0 0.0 0.00 0.12 0.00 96 1012.9
20260904040033 64 286 0.0 0.0 0.00 0.12 0.12 96 1012.9
20260904035535 64 286 0.0 0.0 0.00 0.12 0.12 96 1013.0
20260904035038 64 286 0.0 0.0 0.00 0.12 0.12 96 1013.0
20260904034544 64 286 0.0 0.0 0.00 0.12 0.12 96 1013.0
20260904034033 64 286 0.0 0.0 0.00 0.12 0.12 96 1013.0
20260904033557 64 286 0.0 0.0 0.00 0.12 0.12 96 1013.1
20260904033038 64 286 0.0 0.0 0.00 0.12 0.12 96 1013.2
20260904032540 64 286 0.0 0.0 0.00 0.12 0.12 96 1013.1
20260904032026 64 286 0.0 0.0 0.00 0.12 0.12 96 1013.1
20260904031529 65 286 0.0 0.0 0.00 0.12 0.12 96 1013.0
20260904031035 64 286 0.0 0.0 0.00 0.12 0.12 96 1013.2
20260904030558 64 286 0.0 0.0 0.00 0.12 0.12 96 1013.2
20260904030026 64 286 0.0 0.0 0.00 0.12 0.12 96 1013.1
20260904025529 64 286 0.0 0.0 0.00 0.12 0.12 96 1013.2
20260904025047 65 286 0.0 0.0 0.00 0.12 0.12 96 1013.4
20260904024546 65 286 0.0 0.0 0.00 0.12 0.12 96 1013.5
20260904024049 65 286 0.0 0.0 0.00 0.12 0.12 96 1013.6
20260904023533 65 286 0.0 0.0 0.00 0.12 0.12 96 1013.6
20260904023035 65 286 0.0 0.0 0.00 0.12 0.12 96 1013.5
20260904022539 65 286 0.0 0.0 0.00 0.12 0.12 96 1013.6
20260904022045 65 286 0.0 0.0 0.00 0.12 0.12 96 1013.6
20260904021530 65 286 0.0 0.0 0.00 0.12 0.12 96 1013.6
20260904021029 65 286 0.0 0.0 0.00 0.12 0.12 96 1013.5
20260904020537 65 286 0.0 0.0 0.00 0.12 0.12 96 1013.5
20260904020101 65 286 0.0 0.0 0.00 0.12 0.12 96 1013.5
20260904015529 65 286 0.0 0.0 0.00 0.12 0.12 95 1013.6
20260904015108 65 286 0.0 0.0 0.00 0.12 0.12 96 1013.6
20260904014550 66 286 0.0 0.0 0.00 0.12 0.12 96 1013.7
20260904014035 66 286 0.0 0.0 0.00 0.12 0.12 95 1013.7
20260904013539 66 286 0.0 0.0 0.00 0.12 0.12 95 1013.8
20260904013101 66 286 0.0 0.0 0.00 0.12 0.12 95 1013.8
20260904012543 66 286 0.0 0.0 0.00 0.12 0.12 95 1013.7
20260904012046 66 286 0.0 0.0 0.00 0.12 0.12 95 1013.7
20260904011545 66 286 0.0 0.0 0.00 0.12 0.12 95 1013.7
20260904011050 66 286 0.0 0.0 0.00 0.12 0.12 95 1013.6
20260904010551 66 286 0.0 0.0 0.00 0.12 0.12 95 1013.5
20260904010055 67 286 0.0 0.0 0.00 0.12 0.12 95 1013.5
20260904005538 67 286 0.0 0.0 0.00 0.12 0.12 95 1013.5
20260904005101 67 286 0.0 0.0 0.00 0.12 0.12 95 1013.4
20260904004544 67 286 0.0 0.0 0.00 0.12 0.12 95 1013.4
20260904004026 67 286 0.0 0.0 0.00 0.12 0.12 95 1013.5
20260904003531 67 286 0.0 0.0 0.00 0.12 0.12 95 1013.4
20260904003028 68 286 0.0 0.0 0.00 0.12 0.12 95 1013.4
20260904002534 68 286 0.0 0.0 0.00 0.12 0.12 95 1013.5